| time (UTC) | temp F | wind direction | speed MPH | gust MPH | rain 1hr in | rain 24hr in | rain mn in | humidity % | barometer mb |
| 20260510163915 | 69 | 0.0 | 1.0 | 0.00 | 0.31 | 0.01 | 71 | 1013.6 | |
| 20260510162915 | 68 | 0.0 | 0.0 | 0.00 | 0.31 | 0.01 | 72 | 1013.6 | |
| 20260510162035 | 67 | 195 | 0.0 | 2.0 | 0.00 | 0.31 | 0.01 | 78 | 1013.6 |
| 20260510160915 | 66 | 0.0 | 0.0 | 0.00 | 0.31 | 0.01 | 76 | 1013.7 | |
| 20260510155915 | 65 | 0.0 | 0.0 | 0.00 | 0.31 | 0.01 | 79 | 1013.6 | |
| 20260510154935 | 64 | 0.0 | 0.0 | 0.00 | 0.31 | 0.01 | 82 | 1013.4 | |
| 20260510153937 | 63 | 0.0 | 0.0 | 0.00 | 0.31 | 0.01 | 86 | 1013.6 | |
| 20260510152917 | 62 | 0.0 | 0.0 | 0.00 | 0.31 | 0.01 | 87 | 1013.6 | |
| 20260510151917 | 61 | 0.0 | 1.0 | 0.00 | 0.31 | 0.01 | 91 | 1013.5 | |
| 20260510150917 | 60 | 0.0 | 0.0 | 0.00 | 0.31 | 0.01 | 91 | 1013.5 | |
| 20260510145917 | 59 | 0.0 | 0.0 | 0.00 | 0.31 | 0.01 | 92 | 1013.6 | |
| 20260510145716 | 59 | 0.0 | 0.0 | 0.00 | 0.31 | 0.01 | 92 | 1013.6 | |
| 20260510144716 | 58 | 0.0 | 0.0 | 0.00 | 0.31 | 0.01 | 92 | 1013.7 | |
| 20260510143716 | 58 | 0.0 | 0.0 | 0.00 | 0.31 | 0.01 | 93 | 1013.5 | |
| 20260510142716 | 57 | 0.0 | 0.0 | 0.00 | 0.31 | 0.01 | 93 | 1013.5 | |
| 20260510141716 | 56 | 0.0 | 0.0 | 0.00 | 0.31 | 0.01 | 93 | 1013.5 | |
| 20260510140716 | 56 | 0.0 | 0.0 | 0.00 | 0.31 | 0.01 | 93 | 1013.5 | |
| 20260510135736 | 56 | 0.0 | 0.0 | 0.00 | 0.31 | 0.01 | 93 | 1013.4 | |
| 20260510134716 | 56 | 0.0 | 0.0 | 0.00 | 0.31 | 0.01 | 93 | 1013.4 | |
| 20260510133716 | 55 | 0.0 | 0.0 | 0.00 | 0.31 | 0.01 | 93 | 1013.4 | |
| 20260510132736 | 54 | 0.0 | 0.0 | 0.00 | 0.31 | 0.01 | 93 | 1013.4 | |
| 20260510131736 | 54 | 0.0 | 0.0 | 0.00 | 0.31 | 0.01 | 93 | 1013.3 | |
| 20260510130716 | 54 | 0.0 | 0.0 | 0.00 | 0.31 | 0.01 | 93 | 1013.2 | |
| 20260510125756 | 54 | 0.0 | 0.0 | 0.00 | 0.31 | 0.01 | 94 | 1013.0 | |
| 20260510124715 | 53 | 0.0 | 0.0 | 0.00 | 0.31 | 0.01 | 93 | 1012.9 | |
| 20260510123716 | 53 | 0.0 | 0.0 | 0.00 | 0.31 | 0.01 | 94 | 1012.8 | |
| 20260510122716 | 53 | 0.0 | 0.0 | 0.00 | 0.31 | 0.01 | 94 | 1012.8 | |
| 20260510121715 | 52 | 0.0 | 0.0 | 0.00 | 0.31 | 0.01 | 93 | 1012.7 | |
| 20260510120715 | 52 | 0.0 | 0.0 | 0.00 | 0.31 | 0.01 | 93 | 1012.5 | |
| 20260510115716 | 52 | 0.0 | 0.0 | 0.00 | 0.31 | 0.01 | 94 | 1012.5 | |
| 20260510114716 | 52 | 0.0 | 0.0 | 0.00 | 0.31 | 0.01 | 94 | 1012.5 | |
| 20260510113715 | 52 | 0.0 | 0.0 | 0.00 | 0.31 | 0.01 | 94 | 1012.4 | |
| 20260510112715 | 52 | 0.0 | 0.0 | 0.00 | 0.31 | 0.01 | 94 | 1012.3 | |
| 20260510111716 | 51 | 0.0 | 0.0 | 0.00 | 0.31 | 0.01 | 94 | 1012.3 | |
| 20260510110715 | 51 | 0.0 | 0.0 | 0.00 | 0.31 | 0.01 | 94 | 1012.0 | |
| 20260510105715 | 50 | 0.0 | 0.0 | 0.00 | 0.31 | 0.01 | 94 | 1011.7 | |
| 20260510104315 | 0 | 0.0 | 0.0 | 0.00 | 0.31 | 0.01 | |||
| 20260510103315 | 0 | 0.0 | 0.0 | 0.00 | 0.31 | 0.01 | |||
| 20260510101715 | 0 | 0.0 | 0.0 | 0.00 | 0.31 | 0.01 | |||
| 20260510100715 | 0 | 0.0 | 0.0 | 0.00 | 0.31 | 0.01 | |||
| 20260510095215 | 0 | 0.0 | 0.0 | 0.00 | 0.31 | 0.01 | |||
| 20260510094215 | 0 | 0.0 | 0.0 | 0.00 | 0.31 | 0.01 | |||
| 20260510092615 | 0 | 0.0 | 0.0 | 0.00 | 0.31 | 0.01 | |||
| 20260510091615 | 51 | 0.0 | 0.0 | 0.00 | 0.31 | 0.01 | 96 | 1012.1 | |
| 20260510090115 | 50 | 0.0 | 0.0 | 0.00 | 0.31 | 0.01 | 93 | 1012.2 | |
| 20260510085115 | 50 | 0.0 | 0.0 | 0.00 | 0.31 | 0.01 | 93 | 1012.3 | |
| 20260510084135 | 51 | 0.0 | 0.0 | 0.00 | 0.31 | 0.01 | 93 | 1012.3 | |
| 20260510083115 | 51 | 31 | 1.0 | 4.0 | 0.00 | 0.31 | 0.01 | 93 | 1012.3 |
| 20260510082135 | 51 | 0.0 | 0.0 | 0.00 | 0.31 | 0.01 | 93 | 1012.2 | |
| 20260510081135 | 51 | 0.0 | 0.0 | 0.00 | 0.31 | 0.01 | 93 | 1012.0 | |
| 20260510080115 | 51 | 0.0 | 0.0 | 0.00 | 0.31 | 0.01 | 93 | 1011.6 | |
| 20260510075115 | 51 | 0.0 | 0.0 | 0.00 | 0.31 | 0.01 | 93 | 1011.4 | |
| 20260510074115 | 51 | 0.0 | 0.0 | 0.00 | 0.31 | 0.01 | 93 | 1011.3 | |
| 20260510073135 | 51 | 0.0 | 0.0 | 0.00 | 0.31 | 0.01 | 93 | 1011.2 | |
| 20260510072115 | 51 | 0.0 | 0.0 | 0.00 | 0.31 | 0.01 | 93 | 1011.3 | |
| 20260510071115 | 51 | 0.0 | 0.0 | 0.00 | 0.31 | 0.01 | 93 | 1011.3 | |
| 20260510070115 | 51 | 0.0 | 0.0 | 0.00 | 0.31 | 0.01 | 93 | 1011.4 | |
| 20260510065155 | 51 | 0.0 | 0.0 | 0.00 | 0.31 | 0.01 | 93 | 1011.5 | |
| 20260510064155 | 51 | 0.0 | 0.0 | 0.00 | 0.31 | 0.01 | 93 | 1011.5 | |
| 20260510063116 | 51 | 0.0 | 0.0 | 0.00 | 0.31 | 0.01 | 93 | 1011.5 | |
| 20260510062115 | 51 | 0.0 | 0.0 | 0.00 | 0.31 | 0.01 | 93 | 1011.4 | |
| 20260510061116 | 51 | 0.0 | 0.0 | 0.00 | 0.31 | 0.01 | 93 | 1011.1 | |
| 20260510060115 | 50 | 0.0 | 0.0 | 0.00 | 0.31 | 0.01 | 93 | 1011.2 | |
| 20260510055116 | 50 | 0.0 | 0.0 | 0.00 | 0.31 | 0.01 | 93 | 1011.3 | |
| 20260510054155 | 50 | 0.0 | 0.0 | 0.00 | 0.31 | 0.01 | 93 | 1011.2 | |
| 20260510053117 | 51 | 0.0 | 0.0 | 0.00 | 0.31 | 0.01 | 93 | 1011.2 | |
| 20260510052117 | 51 | 0.0 | 0.0 | 0.01 | 0.31 | 0.01 | 93 | 1011.3 | |
| 20260510051117 | 51 | 0.0 | 0.0 | 0.01 | 0.31 | 0.01 | 93 | 1011.4 | |
| 20260510050117 | 51 | 0.0 | 0.0 | 0.01 | 0.31 | 0.01 | 93 | 1011.4 | |
| 20260510045115 | 51 | 0.0 | 0.0 | 0.01 | 0.31 | 0.01 | 93 | 1011.4 | |
| 20260510044117 | 51 | 0.0 | 0.0 | 0.01 | 0.31 | 0.01 | 93 | 1011.5 | |
| 20260510043117 | 51 | 0.0 | 0.0 | 0.01 | 0.31 | 0.01 | 93 | 1011.5 | |
| 20260510042817 | 51 | 0.0 | 0.0 | 0.01 | 0.31 | 0.01 | 93 | 1011.5 | |
| 20260510041817 | 51 | 0.0 | 0.0 | 0.00 | 0.30 | 0.00 | 93 | 1011.6 | |
| 20260510040817 | 51 | 0.0 | 0.0 | 0.00 | 0.30 | 0.00 | 93 | 1011.4 | |
| 20260510035815 | 51 | 0.0 | 0.0 | 0.00 | 0.30 | 0.30 | 93 | 1011.4 | |
| 20260510034815 | 51 | 0.0 | 0.0 | 0.00 | 0.30 | 0.30 | 93 | 1011.3 | |
| 20260510033815 | 51 | 0.0 | 0.0 | 0.00 | 0.30 | 0.30 | 93 | 1011.2 | |
| 20260510032815 | 51 | 0.0 | 0.0 | 0.00 | 0.30 | 0.30 | 93 | 1011.2 | |
| 20260510031815 | 51 | 0.0 | 0.0 | 0.00 | 0.30 | 0.30 | 93 | 1011.1 | |
| 20260510030816 | 51 | 0.0 | 0.0 | 0.00 | 0.30 | 0.30 | 93 | 1011.0 | |
| 20260510025815 | 51 | 0.0 | 0.0 | 0.00 | 0.30 | 0.30 | 93 | 1011.1 | |
| 20260510024817 | 51 | 0.0 | 0.0 | 0.00 | 0.30 | 0.30 | 93 | 1011.0 | |
| 20260510023817 | 51 | 0.0 | 0.0 | 0.00 | 0.30 | 0.30 | 93 | 1011.1 | |
| 20260510022837 | 51 | 0.0 | 0.0 | 0.00 | 0.30 | 0.30 | 92 | 1011.1 | |
| 20260510021837 | 51 | 0.0 | 0.0 | 0.00 | 0.30 | 0.30 | 92 | 1011.2 | |
| 20260510020817 | 52 | 0.0 | 0.0 | 0.00 | 0.30 | 0.30 | 92 | 1011.2 | |
| 20260510015817 | 52 | 0.0 | 0.0 | 0.00 | 0.30 | 0.30 | 92 | 1011.1 | |
| 20260510014816 | 52 | 0.0 | 0.0 | 0.00 | 0.30 | 0.30 | 92 | 1011.1 | |
| 20260510013817 | 52 | 0.0 | 0.0 | 0.00 | 0.30 | 0.30 | 92 | 1011.1 | |
| 20260510012817 | 52 | 0.0 | 0.0 | 0.00 | 0.30 | 0.30 | 92 | 1011.2 | |
| 20260510011817 | 52 | 0.0 | 0.0 | 0.00 | 0.30 | 0.30 | 92 | 1011.0 | |
| 20260510010816 | 52 | 0.0 | 0.0 | 0.00 | 0.30 | 0.30 | 92 | 1010.9 | |
| 20260510005817 | 52 | 0.0 | 0.0 | 0.00 | 0.30 | 0.30 | 92 | 1010.5 | |
| 20260510004817 | 52 | 0.0 | 0.0 | 0.00 | 0.30 | 0.30 | 92 | 1010.5 | |
| 20260510003817 | 52 | 0.0 | 0.0 | 0.00 | 0.30 | 0.30 | 92 | 1010.5 | |
| 20260510002816 | 52 | 0.0 | 0.0 | 0.00 | 0.30 | 0.30 | 92 | 1010.4 | |
| 20260510001817 | 52 | 0.0 | 0.0 | 0.00 | 0.30 | 0.30 | 92 | 1010.4 | |
| 20260510000816 | 52 | 0.0 | 0.0 | 0.00 | 0.30 | 0.30 | 92 | 1010.5 | |
| 20260509235817 | 53 | 0.0 | 0.0 | 0.00 | 0.30 | 0.30 | 92 | 1010.4 | |
| 20260509234817 | 53 | 0.0 | 0.0 | 0.00 | 0.30 | 0.30 | 92 | 1010.3 | |
| 20260509233816 | 53 | 0.0 | 0.0 | 0.00 | 0.30 | 0.30 | 92 | 1010.2 | |
| 20260509233615 | 53 | 0.0 | 0.0 | 0.00 | 0.30 | 0.30 | 92 | 1010.1 | |
| 20260509232615 | 54 | 0.0 | 0.0 | 0.00 | 0.30 | 0.30 | 92 | ||
| 20260509231615 | 54 | 0.0 | 0.0 | 0.00 | 0.30 | 0.30 | 92 | ||
| 20260509230616 | 54 | 0.0 | 0.0 | 0.00 | 0.30 | 0.30 | 92 | ||
| 20260509225616 | 53 | 0.0 | 0.0 | 0.00 | 0.30 | 0.30 | 92 | ||
| 20260509224615 | 54 | 0.0 | 0.0 | 0.00 | 0.30 | 0.30 | 92 | ||
| 20260509223615 | 54 | 0.0 | 0.0 | 0.07 | 0.30 | 0.30 | 91 | ||
| 20260509222615 | 54 | 0.0 | 0.0 | 0.11 | 0.30 | 0.30 | 91 | ||
| 20260509221615 | 54 | 0.0 | 0.0 | 0.14 | 0.30 | 0.30 | 91 | ||
| 20260509220615 | 54 | 0.0 | 0.0 | 0.20 | 0.30 | 0.30 | 91 | ||
| 20260509215636 | 53 | 0.0 | 0.0 | 0.21 | 0.30 | 0.30 | 91 | ||
| 20260509214615 | 53 | 0.0 | 0.0 | 0.22 | 0.30 | 0.30 | 91 | ||
| 20260509213615 | 53 | 0.0 | 0.0 | 0.15 | 0.23 | 0.23 | 91 | ||
| 20260509212615 | 54 | 0.0 | 0.0 | 0.11 | 0.19 | 0.19 | 91 | ||
| 20260509211635 | 54 | 0.0 | 0.0 | 0.09 | 0.16 | 0.16 | 90 | ||
| 20260509210615 | 54 | 0.0 | 0.0 | 0.03 | 0.10 | 0.10 | 90 | 1010.9 | |
| 20260509205615 | 54 | 0.0 | 0.0 | 0.02 | 0.09 | 0.09 | 90 | 1010.7 | |
| 20260509204656 | 54 | 0.0 | 0.0 | 0.01 | 0.08 | 0.08 | 90 | 1010.9 | |
| 20260509203615 | 54 | 0.0 | 0.0 | 0.02 | 0.08 | 0.08 | 89 | 1010.9 | |
| 20260509202615 | 54 | 0.0 | 0.0 | 0.03 | 0.08 | 0.08 | 89 | 1011.1 | |
| 20260509201636 | 55 | 0.0 | 0.0 | 0.02 | 0.07 | 0.07 | 89 | 1011.0 | |
| 20260509200635 | 55 | 69 | 0.0 | 1.0 | 0.02 | 0.07 | 0.07 | 89 | 1011.0 |
| 20260509195615 | 55 | 0.0 | 0.0 | 0.02 | 0.07 | 0.07 | 88 | 1011.1 | |
| 20260509194615 | 55 | 0.0 | 0.0 | 0.02 | 0.07 | 0.07 | 88 | 1011.2 | |
| 20260509193615 | 56 | 0.0 | 0.0 | 0.01 | 0.06 | 0.06 | 87 | 1011.2 | |
| 20260509192636 | 56 | 0.0 | 0.0 | 0.00 | 0.05 | 0.05 | 87 | 1011.1 | |
| 20260509191615 | 56 | 0.0 | 0.0 | 0.00 | 0.05 | 0.05 | 88 | 1011.2 | |
| 20260509190615 | 56 | 0.0 | 0.0 | 0.01 | 0.05 | 0.05 | 88 | 1011.1 | |
| 20260509185615 | 56 | 0.0 | 0.0 | 0.01 | 0.05 | 0.05 | 88 | 1011.1 | |
| 20260509184615 | 56 | 0.0 | 0.0 | 0.02 | 0.05 | 0.05 | 88 | 1011.2 | |
| 20260509183616 | 56 | 0.0 | 0.0 | 0.03 | 0.05 | 0.05 | 87 | 1011.2 | |
| 20260509182615 | 56 | 0.0 | 0.0 | 0.05 | 0.05 | 0.05 | 87 | 1011.4 | |
| 20260509181615 | 57 | 0.0 | 0.0 | 0.05 | 0.05 | 0.05 | 88 | 1011.5 | |
| 20260509180615 | 57 | 0.0 | 1.0 | 0.04 | 0.04 | 0.04 | 87 | 1011.3 | |
| 20260509175615 | 58 | 0.0 | 0.0 | 0.04 | 0.04 | 0.04 | 86 | 1011.6 | |
| 20260509174615 | 59 | 0.0 | 0.0 | 0.03 | 0.03 | 0.03 | 82 | 1011.5 | |
| 20260509173615 | 61 | 0.0 | 0.0 | 0.02 | 0.02 | 0.02 | 76 | 1011.2 | |
| 20260509172615 | 62 | 0.0 | 0.0 | 0.00 | 0.00 | 0.00 | 68 | 1011.2 | |
| 20260509171615 | 63 | 0.0 | 0.0 | 0.00 | 0.00 | 0.00 | 68 | 1011.2 | |
| 20260509170615 | 63 | 0.0 | 0.0 | 0.00 | 0.00 | 0.00 | 70 | 1011.2 | |
| 20260509165617 | 62 | 0.0 | 1.0 | 0.00 | 0.00 | 0.00 | 70 | 1011.3 | |
| 20260509164617 | 62 | 0.0 | 0.0 | 0.00 | 0.00 | 0.00 | 70 | 1011.3 |